Location: Hurstbourne Priors
(51.2000°N, 1.3667°W)
Time: 12:34:37
(UTC+00:00)

STARLINK-1212 - Pass Details

Date: 09 April 2020
Orbit: 377 x 382 km, 53.0° (Epoch: 26 May)

Event Time Altitude Azimuth Distance (km) Brightness Sun altitude
Rises 19:42:26 0° 288° (WNW) 2,267 9.2 -8.2°
Reaches altitude 10° 19:44:31 10° 283° (WNW) 1,412 7.3 -8.5°
Maximum altitude 19:47:35 49° 207° (SSW) 505 3.5 -9.0°
Enters shadow 19:50:14 13° 133° (SE) 1,247 4.8 -9.3°
